Regional Weather Roundup
Issued by NWS Mt. Holly, NJ

Home | Current Version | Previous Version | Text Only | Print | Product List | Glossary On
Versions: 1 2 3 4 5 6 7 8 9 10 11 12 13 14 15 16 17 18 19 20 21 22 23 24 25 26 27 28 29 30 31 32 33 34 35 36 37 38 39 40 41 42 43 44 45 46 47 48 49 50
000
ASUS41 KPHI 210310
RWRPHI

REGIONAL WEATHER ROUNDUP
NATIONAL WEATHER SERVICE MOUNT HOLLY NJ
1000 PM EST SAT DEC 20 2014

NOTE:  "FAIR" INDICATES FEW OR NO CLOUDS BELOW 12,000 FEET WITH NO
SIGNIFICANT WEATHER AND/OR OBSTRUCTIONS TO VISIBILITY.

 * = STATION DOES NOT REPORT PRECIPITATION (E.G. RAIN, SNOW, ETC.)
        OR FOG.

NJZ015>026-210400-
SOUTHERN NEW JERSEY

CITY           SKY/WX    TMP DP  RH WIND       PRES   REMARKS
POMONA         CLOUDY    28  21  75 CALM      30.30S
RIO GRANDE*    PTCLDY    27  19  74 CALM      30.29S
MILLVILLE      CLOUDY    28  24  85 CALM      30.30R
WRIGHTSTOWN    CLOUDY    28  23  82 N2        30.27S
MOUNT HOLLY    CLOUDY    31  24  75 CALM      30.29F
TRENTON        CLOUDY    31  21  66 CALM      30.28F

$$
NJZ001>014-210400-
NORTHERN NEW JERSEY

CITY           SKY/WX    TMP DP  RH WIND       PRES   REMARKS
SUSSEX         CLOUDY    29  21  72 E6        30.27F WCI  23
ANDOVER*         N/A     29  20  69 NE3       30.26F
MORRISTOWN     CLOUDY    34  21  60 CALM      30.29S
NEWARK         CLOUDY    32  22  66 NE7       30.30S WCI  26
TETERBORO      CLOUDY    32  21  64 NE3       30.30R
CALDWELL       CLOUDY    31  21  66 NE3       30.29F
SOMERVILLE     CLOUDY    31  22  69 CALM      30.28S
ALLAIRE*       CLOUDY    30  18  59 NW5       30.28F WCI  25
TOMS RIVER*    CLEAR     25  21  86 CALM      30.29F

$$
PAZ043-044-047-054-055-060>062-066>071-210400-
EASTERN PENNSYLVANIA

CITY           SKY/WX    TMP DP  RH WIND       PRES   REMARKS
PHILADELPHIA   CLOUDY    34  22  61 SE5       30.31S WCI  30
NORTH PHILA    CLOUDY    34  20  56 NE6       30.30F WCI  29
BLUE BELL      CLOUDY    32  28  86 CALM      30.27F
DOYLESTOWN     CLOUDY    30  22  72 CALM      30.27F
QUAKERTOWN*    CLOUDY    32  25  74 CALM      30.27F
POTTSTOWN      CLOUDY    31  22  69 NW3       30.29S
LANCASTER      MOCLDY    28  21  75 W3        30.29R
COATESVILLE    PTCLDY    28  25  86 CALM      30.27R
READING        CLOUDY    32  21  64 NW3       30.28R
ALLENTOWN      CLOUDY    32  20  61 E5        30.28S WCI  27
MOUNT POCONO   CLOUDY    24  18  77 NE6       30.17S WCI  17
HAZLETON       CLOUDY    28  21  74 CALM      30.24R
WILKES BARRE   CLOUDY    30  19  63 N5        30.23F WCI  25

$$
DEZALL-MDZ008-012-015-019-020-210400-
DELAWARE AND EASTERN MARYLAND

CITY           SKY/WX    TMP DP  RH WIND       PRES   REMARKS
WILMINGTON     MOCLDY    33  23  66 CALM      30.31R
DOVER          CLOUDY    30  26  83 W1        30.28R
GEORGETOWN     CLOUDY    29  25  85 CALM      30.30S
EASTON         CLOUDY    33  29  86 CALM      30.34
PATUXENT       PTCLDY    29  22  75 CALM      30.30S
OCEAN CITY     PTCLDY    26  23  88 CALM      30.30S
WALLOPS ISLAND PTCLDY    30  25  81 N3        30.31S
CAMBRIDGE      MOCLDY    32  30  93 CALM      30.30S
SALISBURY      PTCLDY    30  24  78 CALM      30.31R

$$
PAZ001-021-NYZ056-072-MDZ011-DCZ001-210400-
OTHER NEARBY LOCATIONS

CITY           SKY/WX    TMP DP  RH WIND       PRES   REMARKS
HARRISBURG     MOCLDY    27  22  81 NW5       30.30R WCI  22
STATE COLLEGE  CLOUDY    28  21  75 CALM      30.25S
WILLIAMSPORT   CLOUDY    31  21  66 W3        30.28R
BINGHAMTON     CLOUDY    25  19  78 CALM      30.20F
NEW YORK CITY  CLOUDY    32  20  61 VRB3      30.31S
BALTIMORE      CLOUDY    34  24  67 CALM      30.29S
WASHINGTON DC  MOCLDY    37  21  52 NW5       30.31S WCI  33

$$



USA.gov is the U.S. government's official web portal to all federal, state and local government web resources and services.